Time,TemperatureF,DewpointF,PressureIn,WindDirection,WindDirectionDegrees,WindSpeedMPH,WindSpeedGustMPH,Humidity,HourlyPrecipIn,Conditions,Clouds,dailyrainin,SoftwareType,DateUTC
2013-02-13 00:01:00,65.3,58.3,30.20,ESE,113,2.0,7.0,78,0.00,,,0.01,Wunderground v.1.15,2013-02-13 10:01:00,
2013-02-13 00:07:00,65.3,58.3,30.20,ESE,119,1.0,7.0,78,0.00,,,0.01,Wunderground v.1.15,2013-02-13 10:07:00,
2013-02-13 00:12:00,65.3,58.3,30.19,ESE,119,2.0,7.0,78,0.00,,,0.01,Wunderground v.1.15,2013-02-13 10:12:00,
2013-02-13 00:18:00,65.3,57.9,30.19,ESE,121,1.0,7.0,77,0.00,,,0.01,Wunderground v.1.15,2013-02-13 10:18:00,
2013-02-13 00:24:00,65.3,58.3,30.19,ESE,122,1.0,6.0,78,0.00,,,0.01,Wunderground v.1.15,2013-02-13 10:24:00,
2013-02-13 00:29:00,65.4,58.0,30.19,SE,132,1.0,6.0,77,0.00,,,0.01,Wunderground v.1.15,2013-02-13 10:29:00,
2013-02-13 00:35:00,65.4,58.0,30.18,South,182,2.0,6.0,77,0.00,,,0.01,Wunderground v.1.15,2013-02-13 10:35:00,
2013-02-13 00:41:00,65.5,58.1,30.19,South,180,2.0,6.0,77,0.00,,,0.01,Wunderground v.1.15,2013-02-13 10:41:00,
2013-02-13 00:46:00,65.6,58.6,30.18,South,180,1.0,8.0,78,0.00,,,0.01,Wunderground v.1.15,2013-02-13 10:46:00,
2013-02-13 00:52:00,65.6,58.6,30.18,South,180,1.0,8.0,78,0.00,,,0.01,Wunderground v.1.15,2013-02-13 10:52:00,
2013-02-13 00:57:00,65.6,58.9,30.18,South,179,1.0,8.0,79,0.00,,,0.01,Wunderground v.1.15,2013-02-13 10:57:00,
2013-02-13 01:03:00,65.6,58.9,30.18,South,179,1.0,8.0,79,0.00,,,0.00,Wunderground v.1.15,2013-02-13 11:03:00,
2013-02-13 01:09:00,65.6,58.9,30.18,SSE,161,1.0,8.0,79,0.00,,,0.00,Wunderground v.1.15,2013-02-13 11:09:00,
2013-02-13 01:15:00,65.6,58.9,30.18,SSE,161,2.0,5.0,79,0.00,,,0.00,Wunderground v.1.15,2013-02-13 11:15:00,
2013-02-13 01:20:00,65.6,59.3,30.18,SSE,156,1.0,7.0,80,0.00,,,0.00,Wunderground v.1.15,2013-02-13 11:20:00,
2013-02-13 01:26:00,65.6,59.3,30.17,SSE,153,2.0,7.0,80,0.00,,,0.00,Wunderground v.1.15,2013-02-13 11:26:00,
2013-02-13 01:31:00,65.6,59.3,30.17,SSE,153,1.0,7.0,80,0.00,,,0.00,Wunderground v.1.15,2013-02-13 11:31:00,
2013-02-13 01:37:00,65.6,59.3,30.17,SSE,153,1.0,7.0,80,0.00,,,0.00,Wunderground v.1.15,2013-02-13 11:37:00,
2013-02-13 01:43:00,65.6,59.3,30.17,SSE,153,1.0,7.0,80,0.00,,,0.00,Wunderground v.1.15,2013-02-13 11:43:00,
2013-02-13 01:48:00,65.6,59.3,30.17,SSE,153,1.0,7.0,80,0.00,,,0.00,Wunderground v.1.15,2013-02-13 11:48:00,
2013-02-13 01:54:00,65.6,58.9,30.17,SSE,147,2.0,6.0,79,0.00,,,0.00,Wunderground v.1.15,2013-02-13 11:54:00,
2013-02-13 01:59:00,65.7,59.0,30.17,SE,138,3.0,7.0,79,0.00,,,0.00,Wunderground v.1.15,2013-02-13 11:59:00,
2013-02-13 02:04:00,65.7,59.0,30.17,SE,138,2.0,8.0,79,0.00,,,0.00,Wunderground v.1.15,2013-02-13 12:04:00,
2013-02-13 02:10:00,65.7,59.0,30.17,SE,138,2.0,2.0,79,0.00,,,0.00,Wunderground v.1.15,2013-02-13 12:10:00,
2013-02-13 02:16:00,65.7,59.0,30.16,SE,143,3.0,8.0,79,0.00,,,0.00,Wunderground v.1.15,2013-02-13 12:16:00,
2013-02-13 02:21:00,65.8,59.1,30.16,SE,140,3.0,9.0,79,0.00,,,0.00,Wunderground v.1.15,2013-02-13 12:21:00,
2013-02-13 02:27:00,65.8,58.7,30.16,SE,142,2.0,9.0,78,0.00,,,0.00,Wunderground v.1.15,2013-02-13 12:27:00,
2013-02-13 02:33:00,65.8,58.7,30.16,SE,143,3.0,9.0,78,0.00,,,0.00,Wunderground v.1.15,2013-02-13 12:33:00,
2013-02-13 02:38:00,65.8,58.4,30.16,ESE,104,3.0,9.0,77,0.00,,,0.00,Wunderground v.1.15,2013-02-13 12:38:00,
2013-02-13 02:44:00,65.8,58.4,30.16,ESE,107,2.0,8.0,77,0.00,,,0.00,Wunderground v.1.15,2013-02-13 12:44:00,
2013-02-13 02:49:00,65.8,58.0,30.16,SE,126,2.0,11.0,76,0.00,,,0.00,Wunderground v.1.15,2013-02-13 12:49:00,
2013-02-13 02:55:00,65.7,58.3,30.15,ESE,121,2.0,11.0,77,0.00,,,0.00,Wunderground v.1.15,2013-02-13 12:55:00,
2013-02-13 03:01:00,65.7,58.3,30.15,ESE,121,0.0,11.0,77,0.00,,,0.00,Wunderground v.1.15,2013-02-13 13:01:00,
2013-02-13 03:06:00,65.6,58.2,30.15,ESE,121,0.0,11.0,77,0.00,,,0.00,Wunderground v.1.15,2013-02-13 13:06:00,
2013-02-13 03:11:00,65.5,58.5,30.15,ESE,121,0.0,8.0,78,0.00,,,0.00,Wunderground v.1.15,2013-02-13 13:11:00,
2013-02-13 03:17:00,65.4,58.4,30.15,SE,140,1.0,8.0,78,0.00,,,0.00,Wunderground v.1.15,2013-02-13 13:17:00,
2013-02-13 03:22:00,65.4,58.4,30.15,SE,142,2.0,8.0,78,0.00,,,0.00,Wunderground v.1.15,2013-02-13 13:22:00,
2013-02-13 08:58:00,67.7,60.2,30.18,SSE,161,1.0,7.0,77,0.00,,,0.00,Wunderground v.1.15,2013-02-13 18:58:00,
2013-02-13 09:10:00,68.5,60.3,30.18,SSE,161,0.0,7.0,75,0.00,,,0.00,Wunderground v.1.15,2013-02-13 19:10:00,